Location: Unspecified
(0.0000°N, 0.0000°E)
Time: 06:25:25
(UTC+00:00)

Envisat - Pass Details

Date: 31 July 2021
Orbit: 764 x 766 km, 98.2° (Epoch: 31 July)

Event Time Altitude Azimuth Distance (km) Brightness Sun altitude
Rises 03:54:20 0° 44° (NE) 3,216 7.1 -31.2°
Reaches altitude 10° 03:57:28 10° 65° (ENE) 2,294 6.4 -30.4°
Maximum altitude 04:00:33 16° 103° (ESE) 1,894 5.6 -29.7°
Drops below altitude 10° 04:03:38 10° 140° (SE) 2,300 5.6 -29.0°
Sets 04:06:46 0° 161° (SSE) 3,229 6.2 -28.3°
